Wind_Speed
56 59 61 64 68 72 77 82 87 93 99 103 105 104 101 98 95 93 92 91 91 92 95 100 108 117 122 122 118 112 108 104 99 95 90 85 81 78 75 72 67 63 59
56 59 62 65 70 74 79 85 91 96 100 101 99 96 92 90 89 89 89 88 88 89 90 93 98 105 115 122 124 121 116 111 106 102 97 92 87 83 79 76 73 68 63
56 59 63 67 71 76 82 88 94 97 98 95 91 87 85 84 83 82 81 80 81 83 87 90 94 98 104 113 121 124 122 118 113 108 104 99 93 89 84 80 77 73 68
57 61 64 69 73 79 85 91 95 95 93 89 84 81 79 78 76 75 73 71 70 72 77 84 91 95 98 104 112 120 125 123 119 114 110 105 100 94 89 85 82 78 73
60 63 66 71 76 81 88 92 94 92 88 83 80 77 74 73 71 69 67 65 63 63 66 71 81 91 97 99 104 112 120 124 123 119 115 111 106 100 95 90 86 82 78
62 65 69 73 78 84 89 92 90 87 83 80 78 75 71 69 67 64 62 60 59 58 60 63 69 80 91 98 101 106 114 121 124 123 120 116 111 106 101 95 91 86 82
65 67 71 75 81 86 90 90 87 83 79 78 76 72 67 64 62 59 57 56 56 55 55 58 63 70 81 93 100 103 110 117 123 125 124 121 116 112 106 101 96 91 86
68 70 73 78 83 87 89 87 84 80 77 76 75 73 67 59 54 52 51 52 52 51 50 52 58 65 73 85 96 102 107 114 121 126 127 125 120 116 111 106 101 95 90
70 72 75 80 84 87 87 84 81 78 75 73 73 72 68 61 53 45 43 44 46 46 45 44 50 59 69 77 89 99 105 113 120 125 127 127 124 120 115 110 105 100 95
72 74 77 81 85 86 85 81 78 76 75 72 69 67 65 61 56 47 37 36 39 40 40 38 41 50 63 74 83 95 104 111 118 124 127 129 127 123 119 115 109 104 99
74 75 78 82 84 85 82 78 75 74 73 71 67 63 59 56 54 51 42 34 32 34 36 35 33 40 55 69 79 89 101 109 116 123 127 129 129 126 122 118 113 109 103
75 77 79 82 84 83 79 76 73 72 71 69 66 62 57 53 50 48 44 37 31 28 30 31 30 32 44 61 75 85 96 106 114 122 127 130 131 129 126 122 117 113 107
76 77 79 82 83 81 77 74 71 70 69 67 63 59 55 52 50 48 44 39 33 27 26 27 28 28 36 51 68 81 91 102 111 119 126 131 133 132 129 125 121 116 111
77 78 79 81 81 79 75 72 70 68 67 65 61 57 52 50 49 48 45 42 35 27 24 24 26 27 30 42 59 75 86 97 106 115 123 130 133 133 131 127 123 118 114
77 78 79 80 80 78 74 70 68 67 66 63 59 54 51 48 47 46 45 43 39 30 20 22 25 26 27 34 49 66 80 90 100 109 118 126 131 133 132 128 125 120 116
78 78 79 80 79 76 72 69 67 65 64 62 57 52 49 47 45 45 44 42 40 34 23 19 23 25 25 29 41 58 72 83 93 102 110 119 127 131 132 130 126 122 118
77 78 78 79 78 75 72 68 65 64 62 60 56 51 47 45 44 43 43 41 40 36 28 20 21 23 23 27 36 50 64 76 85 93 102 111 120 127 131 131 128 124 120
77 78 78 78 77 74 71 67 64 63 61 59 54 49 45 43 42 42 41 40 39 36 31 23 19 20 21 23 31 44 57 68 77 85 93 102 112 121 127 130 129 126 122
76 77 77 77 76 73 70 66 63 62 60 58 54 48 44 41 40 40 40 39 37 35 32 26 19 19 18 20 26 38 51 62 70 77 84 93 103 113 122 128 129 127 124
75 76 76 76 75 72 69 65 63 61 59 57 53 48 43 40 39 39 38 38 36 33 31 27 21 18 17 17 23 34 46 56 63 70 76 84 94 104 114 123 127 127 125
75 75 75 74 74 71 68 64 61 60 58 56 53 48 43 40 38 38 38 37 36 33 30 27 22 17 15 15 21 31 42 52 58 64 70 77 85 96 107 117 125 127 126
74 74 74 73 72 70 66 63 61 60 58 56 53 48 43 39 37 37 37 36 35 33 30 27 23 18 13 13 19 29 39 48 54 59 64 69 77 86 97 108 118 124 126
73 73 72 71 71 69 66 61 59 58 57 56 53 48 42 39 36 35 35 35 34 32 30 26 22 17 12 11 18 27 37 45 51 55 59 62 70 77 88 100 111 120 125
71 71 71 70 69 68 65 60 57 56 56 54 52 48 42 38 36 33 32 33 33 31 29 25 21 16 11 10 16 26 35 43 49 52 54 56 63 70 81 92 104 115 122
69 69 70 68 67 66 64 60 57 55 54 53 51 49 43 38 35 32 31 31 31 30 29 25 21 15 10 9 16 25 34 41 46 49 51 52 56 63 74 85 96 107 117
68 68 68 67 65 64 63 60 57 54 52 51 49 48 44 39 35 32 30 30 30 29 27 24 20 14 8 8 15 24 33 39 44 46 48 49 52 58 66 78 89 100 110
Wind_Direction
310 309 309 309 309 309 309 309 309 308 307 305 302 299 295 291 287 282 278 273 268 263 257 252 247 242 237 234 231 229 228 227 226 225 223 223 222 221 220 220 220 220 220
312 312 311 311 311 312 312 312 311 311 309 307 304 301 297 294 289 285 280 274 269 263 257 251 246 241 237 233 230 227 226 225 224 223 222 221 220 219 218 218 219 219 219
315 314 314 314 314 314 314 315 315 314 312 310 307 304 300 297 293 289 284 278 271 264 257 251 246 241 236 232 229 226 224 223 222 221 220 219 219 218 217 217 217 217 217
319 317 317 316 317 317 318 318 318 317 315 312 309 307 304 300 297 293 288 282 275 267 259 252 245 240 236 232 228 225 223 221 220 220 219 218 217 217 216 216 215 216 216
323 321 320 319 320 320 321 322 322 320 317 315 313 311 308 304 300 296 290 285 278 270 262 253 246 239 235 231 227 224 221 219 218 218 217 216 216 215 215 215 214 214 214
326 324 323 322 323 324 325 325 324 322 319 318 316 315 312 309 304 299 294 288 281 274 265 255 246 239 233 229 226 223 219 218 216 216 216 215 214 214 214 213 213 213 213
330 327 326 326 327 328 328 328 327 324 322 320 319 318 316 313 308 302 297 291 286 279 269 258 247 239 232 227 224 221 218 216 215 214 214 214 213 213 213 212 212 212 211
332 330 329 329 330 331 331 330 329 327 325 324 322 321 320 318 312 307 300 295 290 284 275 261 248 239 232 226 222 219 216 214 213 212 212 212 212 212 212 211 211 211 210
334 333 332 332 333 334 334 332 330 329 328 327 326 325 324 323 319 314 306 298 293 289 281 267 250 238 230 225 221 217 215 213 212 211 211 211 211 211 210 210 210 210 209
336 335 334 335 336 336 335 334 332 331 331 331 329 328 327 327 325 324 318 306 298 293 287 275 256 239 229 224 220 216 213 212 211 210 210 210 210 210 210 209 209 209 208
337 336 336 337 338 338 337 335 333 333 333 333 332 331 331 330 329 328 329 321 305 296 291 283 267 244 230 222 218 215 212 211 210 209 209 208 208 209 209 209 209 208 208
338 338 338 339 340 340 338 337 335 335 335 335 334 334 334 334 334 332 331 330 320 304 292 286 276 254 233 223 217 214 212 210 209 209 208 208 208 208 208 208 208 208 207
339 339 339 340 341 341 340 338 337 337 337 337 336 336 337 337 338 337 335 335 330 316 298 288 281 266 242 226 218 214 211 210 209 209 208 207 207 207 207 207 207 207 206
340 340 341 342 342 342 341 340 339 339 339 338 338 338 339 340 340 340 339 337 336 328 305 290 281 273 252 231 220 214 211 210 209 209 208 207 207 206 206 206 206 206 206
341 341 342 343 344 343 342 341 341 340 340 340 339 339 340 341 342 341 340 339 337 336 318 291 282 275 260 237 224 216 211 209 210 210 209 208 207 206 205 205 206 206 206
341 342 342 344 345 344 343 342 342 342 342 341 340 340 340 341 342 342 341 340 338 337 332 300 285 277 265 242 227 219 213 210 209 210 210 209 208 206 205 205 205 205 205
341 342 343 344 346 345 344 343 343 343 343 342 341 340 340 341 342 342 342 341 339 337 336 318 294 282 269 248 229 220 214 210 209 210 210 210 209 207 206 205 204 205 205
341 342 343 345 346 346 345 345 344 345 344 344 342 341 341 342 342 343 343 342 340 338 337 330 305 288 275 253 232 220 214 210 209 209 210 211 210 208 206 205 204 204 204
341 342 343 345 347 347 346 345 345 345 346 346 344 342 342 343 343 343 344 343 341 339 337 334 318 297 280 256 231 218 213 209 208 208 209 210 211 210 207 206 204 203 203
341 342 343 345 347 348 347 346 346 346 347 347 345 344 343 343 344 344 344 344 342 340 338 334 325 304 284 257 229 215 209 207 207 207 208 210 211 210 209 206 204 203 203
340 341 343 345 347 348 347 347 346 346 348 348 347 345 344 344 344 345 345 345 344 343 340 337 329 312 288 255 225 211 206 204 204 205 207 209 210 211 209 207 205 203 203
339 340 343 345 347 349 348 347 346 347 349 350 349 347 345 345 345 345 346 346 346 344 342 338 332 318 292 254 220 207 202 201 201 203 205 207 209 210 210 208 206 204 203
337 339 342 345 347 349 348 347 347 347 349 350 350 348 346 345 345 346 346 347 345 343 342 338 333 321 296 250 215 203 199 198 199 201 202 205 208 209 210 209 207 205 203
335 338 341 344 346 349 349 348 348 348 349 350 351 350 347 346 346 346 347 348 348 345 343 340 335 323 297 245 213 201 196 195 197 198 199 202 206 208 209 209 208 206 203
333 336 339 343 346 348 349 349 349 349 350 350 351 351 349 348 347 347 348 350 350 348 346 343 337 327 296 240 210 199 195 194 195 196 197 200 205 207 209 208 208 207 204
331 334 337 342 345 348 349 349 350 350 350 351 351 352 351 350 349 349 350 352 352 351 349 347 342 332 300 233 206 197 193 193 194 194 195 198 203 205 207 206 207 206 205
Height
5757 5750 5742 5734 5725 5716 5705 5693 5679 5663 5645 5626 5605 5585 5568 5552 5540 5530 5525 5522 5521 5522 5527 5535 5547 5564 5584 5604 5625 5644 5660 5675 5690 5704 5717 5728 5739 5750 5760 5770 5779 5788 5797
5747 5739 5730 5721 5711 5700 5688 5673 5657 5639 5618 5596 5575 5554 5536 5521 5509 5498 5491 5488 5486 5487 5491 5498 5507 5520 5539 5560 5583 5606 5626 5645 5662 5678 5693 5707 5719 5731 5743 5754 5765 5775 5784
5737 5728 5718 5707 5696 5683 5669 5652 5633 5611 5589 5567 5547 5527 5510 5494 5479 5468 5459 5454 5452 5453 5456 5463 5473 5484 5498 5517 5541 5566 5590 5612 5632 5650 5667 5683 5698 5712 5725 5737 5749 5760 5771
5725 5715 5704 5692 5680 5665 5649 5630 5608 5586 5562 5541 5522 5504 5486 5470 5455 5442 5432 5426 5422 5421 5424 5429 5438 5450 5464 5481 5502 5526 5551 5577 5600 5620 5639 5657 5674 5690 5705 5719 5732 5744 5756
5712 5701 5689 5677 5662 5646 5627 5606 5583 5559 5538 5517 5499 5483 5465 5448 5433 5419 5409 5402 5397 5395 5396 5398 5405 5417 5433 5449 5468 5489 5514 5541 5566 5589 5610 5630 5649 5667 5684 5699 5714 5728 5741
5699 5687 5674 5660 5644 5626 5605 5582 5559 5536 5514 5495 5477 5461 5445 5428 5412 5399 5388 5380 5375 5372 5371 5373 5377 5387 5401 5418 5437 5456 5480 5506 5532 5557 5580 5603 5624 5643 5662 5679 5695 5710 5725
5686 5673 5658 5643 5625 5606 5584 5561 5538 5517 5496 5475 5457 5442 5429 5411 5394 5381 5369 5361 5355 5350 5348 5349 5353 5361 5372 5388 5407 5428 5450 5474 5499 5524 5550 5574 5598 5619 5639 5658 5675 5692 5707
5672 5658 5643 5626 5607 5586 5564 5541 5519 5498 5479 5457 5437 5421 5409 5399 5383 5367 5354 5344 5336 5331 5328 5327 5330 5337 5347 5361 5379 5400 5421 5445 5468 5494 5520 5546 5572 5595 5617 5637 5655 5673 5690
5658 5643 5627 5609 5589 5568 5546 5523 5502 5481 5464 5445 5422 5402 5387 5376 5368 5358 5344 5331 5322 5315 5310 5308 5310 5315 5325 5337 5354 5374 5396 5417 5441 5466 5493 5519 5545 5570 5593 5615 5635 5653 5671
5644 5628 5611 5593 5573 5551 5529 5507 5487 5467 5448 5431 5413 5393 5374 5358 5347 5341 5335 5322 5311 5303 5297 5293 5293 5296 5304 5316 5330 5349 5370 5392 5416 5442 5468 5494 5521 5546 5570 5593 5614 5634 5653
5631 5614 5597 5578 5558 5536 5515 5494 5474 5454 5435 5417 5401 5385 5369 5352 5336 5324 5319 5313 5304 5294 5286 5282 5280 5281 5286 5296 5310 5327 5347 5368 5391 5416 5441 5468 5496 5522 5547 5570 5593 5614 5634
5618 5601 5583 5564 5544 5523 5502 5482 5463 5444 5426 5408 5390 5374 5360 5346 5332 5318 5308 5301 5295 5288 5279 5274 5270 5269 5272 5279 5292 5307 5325 5346 5367 5390 5415 5442 5469 5495 5521 5546 5571 5594 5616
5607 5589 5571 5552 5532 5512 5492 5472 5454 5435 5417 5400 5383 5367 5352 5338 5324 5312 5301 5293 5287 5280 5273 5268 5263 5261 5262 5266 5276 5290 5306 5326 5346 5367 5391 5416 5443 5470 5497 5524 5550 5575 5598
5596 5579 5561 5542 5522 5502 5482 5463 5445 5427 5410 5393 5376 5361 5347 5333 5319 5307 5296 5287 5280 5275 5268 5262 5257 5255 5254 5257 5264 5275 5291 5309 5328 5349 5370 5393 5420 5448 5478 5507 5534 5558 5582
5587 5569 5551 5532 5513 5493 5474 5455 5438 5420 5403 5386 5371 5356 5342 5329 5317 5304 5293 5282 5274 5269 5264 5257 5252 5249 5248 5250 5255 5264 5278 5296 5314 5333 5354 5377 5404 5432 5461 5489 5516 5541 5566
5578 5560 5542 5523 5504 5485 5466 5449 5431 5414 5397 5381 5366 5352 5339 5326 5314 5302 5291 5280 5271 5264 5259 5254 5248 5245 5243 5244 5248 5256 5268 5284 5301 5320 5341 5363 5388 5415 5443 5470 5498 5524 5550
5569 5551 5534 5516 5497 5478 5460 5443 5426 5409 5393 5377 5362 5349 5336 5323 5312 5300 5289 5279 5269 5260 5255 5250 5244 5241 5238 5239 5242 5249 5260 5275 5291 5309 5328 5349 5372 5398 5425 5452 5480 5507 5533
5561 5544 5526 5508 5490 5472 5454 5437 5421 5405 5389 5374 5359 5346 5333 5321 5310 5299 5288 5277 5268 5258 5251 5246 5241 5237 5235 5234 5237 5244 5254 5267 5283 5300 5318 5337 5358 5381 5407 5435 5463 5490 5517
5553 5536 5519 5502 5484 5466 5449 5432 5416 5401 5385 5370 5355 5343 5330 5319 5308 5297 5286 5276 5266 5257 5249 5243 5238 5234 5231 5231 5233 5239 5249 5262 5276 5292 5308 5326 5345 5367 5391 5417 5445 5473 5502
5546 5529 5512 5495 5478 5461 5444 5427 5412 5396 5381 5367 5353 5339 5327 5316 5306 5295 5285 5275 5265 5256 5248 5241 5236 5232 5229 5228 5229 5235 5244 5256 5271 5286 5301 5318 5335 5355 5378 5403 5433 5462 5489
5539 5523 5506 5489 5472 5456 5439 5424 5409 5394 5379 5364 5349 5336 5324 5313 5303 5293 5283 5274 5264 5255 5247 5240 5234 5230 5227 5225 5227 5232 5241 5252 5266 5280 5295 5311 5328 5348 5368 5392 5417 5444 5472
5532 5517 5500 5484 5467 5451 5435 5419 5404 5389 5374 5360 5347 5334 5322 5311 5301 5291 5281 5272 5263 5254 5246 5239 5233 5228 5225 5224 5225 5230 5238 5249 5263 5277 5291 5305 5321 5339 5359 5381 5406 5432 5458
5525 5510 5495 5478 5462 5446 5431 5416 5401 5386 5371 5358 5345 5332 5320 5309 5300 5290 5281 5271 5262 5253 5246 5238 5232 5228 5224 5223 5225 5229 5236 5246 5259 5271 5286 5301 5316 5333 5350 5371 5393 5418 5444
5519 5505 5490 5474 5458 5443 5428 5413 5399 5384 5369 5356 5343 5331 5319 5308 5298 5289 5280 5271 5262 5253 5245 5237 5231 5227 5224 5223 5224 5228 5235 5245 5256 5269 5283 5297 5311 5326 5342 5361 5382 5406 5432
5513 5499 5485 5469 5454 5439 5425 5410 5396 5382 5368 5354 5341 5329 5318 5307 5297 5288 5279 5270 5261 5253 5244 5237 5231 5226 5223 5223 5224 5228 5235 5244 5255 5267 5280 5293 5306 5320 5335 5355 5375 5397 5421
5506 5493 5479 5465 5450 5436 5421 5408 5394 5381 5368 5355 5341 5329 5316 5305 5295 5287 5278 5270 5262 5253 5245 5237 5231 5227 5224 5223 5225 5228 5234 5243 5253 5265 5278 5290 5301 5314 5330 5347 5366 5387 5411